TJS-10

Last updated on Sun Dec 21 2025 00:02:57 GMT+0000 (Coordinated Universal Time)

1 58204U 23169A 25354.77520803 .00000024 00000+0 00000+0 0 9995 2 58204 2.0833 82.6856 0005996 171.5823 287.4338 1.00269536 7754
UTC large
Height (km)
Speed (km/s)
/
Latitude / Longitude
Inclination (degrees)
Orbital Period (minutes)
Azimuth
Elevation
Range (km)
Doppler Factor

Next 0 passes for location: London (51.5072 / 0.1276)

Sorry there are no passes over London.